sat.trackr.live / text

‹ back to catalog

STARLINK-33671

NORAD 63320 · 2025-057P

PAYLOAD ACTIVE UNKNOWN

§ Identity

Operator
Country
US
Launch date
2025-03-18
Launch site
AFETR
Launch vehicle
Mass (kg)
RCS (m²)

Purposes: comms

External: N2YO · Heavens-Above · Gunter

§ Orbital elements

Epoch: 2026-09-20T18:12:39.938976Z

Period
94.27 min
Inclination
43.0005°
Eccentricity
0.0001577
Mean motion
15.27580596 rev/d
Perigee alt
482.0 km
Apogee alt
484.1 km
Semi-major
6,861.2 km
B*
3.3424e-4
RAAN
358.5676°
Arg perigee
270.8040°
Mean anomaly
89.2630°
Rev number
8,573

§ Raw data

STARLINK-336711 63320U 25057P   26263.75879559  .00008947  00000+0  33424-3 0  99932 63320  43.0005 358.5676 0001577 270.8040  89.2630 15.27580596 85738

JSON: /api/v1/satellites/63320 · /tle

For live sub-satellite position, see the globe view (requires WebGL).

§ Visibility from observer

Set your observer location to see the next 7 days of passes ≥ 10°. The values pass through the URL so the page stays shareable.

No JS? Fill the form by hand. The geolocation button needs JavaScript.